Tracking 20623 objects as of 3-Apr-2020
HD Live streaming from Space Station
objects crossing your sky now

SCOUT G-1 R/B

Track SCOUT G-1 R/B now!
10-day predictions


NORAD ID: 17071
Int'l Code: 1986-088B
Perigee: 961.8 km
Apogee: 1,014.9 km
Inclination: 89.5 °
Period: 104.7 minutes
Semi major axis: 7359 km
RCS: 0.8546 m2 (medium)
Launch date: November 14, 1986
Source: United States (US)
Launch site: AIR FORCE WESTERN TEST RANGE (AFWTR)

Note: This is a ROCKET BODY
aabbcc
Your satellite tracking list
Your tracking list is empty




NASA's NSSDC Master Catalog

Two Line Element Set (TLE):
1 17071U 86088B   20093.50133760 +.00000052 +00000-0 +42998-4 0  9998
2 17071 089.5219 267.8859 0036052 254.4581 105.2602 13.75126524674315
Source of the keplerian elements: AFSPC